Regional Weather Roundup
Issued by NWS

Home | Current Version | Previous Version | Text Only | Print | Product List | Glossary Off
Versions: 1 2 3 4 5 6 7 8 9 10 11 12 13 14 15 16 17 18 19 20 21 22 23 24 25 26 27 28 29 30 31 32 33 34 35 36 37 38 39 40 41 42 43 44 45 46 47 48 49 50

000
ASUS43 KMKX 231821
RWRWI

WISCONSIN REGIONAL WEATHER ROUNDUP
NATIONAL WEATHER SERVICE MILWAUKEE/SULLIVAN WI
100 PM CDT THU OCT 23 2014

NOTE: "FAIR" INDICATES FEW OR NO CLOUDS BELOW 12,000 FEET WITH NO
SIGNIFICANT WEATHER AND/OR OBSTRUCTIONS TO VISIBILITY.

WIZ001-002-006>008-014>016-023>028-231900-
NORTHWEST WISCONSIN

CITY           SKY/WX    TMP DP  RH WIND       PRES   REMARKS
SUPERIOR ARPT  CLOUDY    53  50  89 SW7       29.97S
6HR MIN TEMP:  47; 6HR MAX TEMP:  53; 6HR PCP:  0.01;

ASHLAND        CLOUDY    51  48  89 S10       29.98F
6HR MIN TEMP:  47; 6HR MAX TEMP:  51; 6HR PCP:  0.11;

HAYWARD        CLOUDY    50  48  93 SW9       29.99F FOG
6HR MIN TEMP:  47; 6HR MAX TEMP:  50; 6HR PCP: TRACE;

SIREN          CLOUDY    53  52  96 SW6       30.00  FOG
6HR MIN TEMP:  48; 6HR MAX TEMP:  53;

CUMBERLAND     CLOUDY    50  48  93 S6        30.00F FOG
RICE LAKE      CLOUDY    50  49  95 S5        30.02F FOG
6HR MIN TEMP:  47; 6HR MAX TEMP:  50;

CHETEK         CLOUDY    50  49  97 S5        30.01F FOG
6HR MIN TEMP:  46; 6HR MAX TEMP:  50; 6HR PCP:  0.05;

LADYSMITH      FOG       47  46  95 S7        30.03F VSB 1
6HR MIN TEMP:  45; 6HR MAX TEMP:  47; 6HR PCP:  0.09;

EAU CLAIRE     CLOUDY    50  48  93 SW5       30.01F
6HR MIN TEMP:  47; 6HR MAX TEMP:  50; 6HR PCP:  0.17;

MENOMONIE      CLOUDY    52  50  94 SW6       30.02S FOG
6HR MIN TEMP:  48; 6HR MAX TEMP:  52; 6HR PCP:  0.03;

NEW RICHMOND   CLOUDY    54  53  97 SW6       30.01F FOG
6HR MIN TEMP:  49; 6HR MAX TEMP:  54;

OSCEOLA        CLOUDY    56  55  94 S6        30.02F
6HR MIN TEMP:  50; 6HR MAX TEMP:  56;

$$

WIZ003>005-009-010-017-018-231900-
NORTH CENTRAL WISCONSIN

CITY           SKY/WX    TMP DP  RH WIND       PRES   REMARKS
MANITOWISH WTR CLOUDY    44  44 100 S6        30.01S
6HR MIN TEMP:  42; 6HR MAX TEMP:  44; 6HR PCP:  0.10;

ARBOR VITAE    DRIZZLE   44  43  95 S9        30.02F
6HR MIN TEMP:  43; 6HR MAX TEMP:  45; 6HR PCP:  0.01;

WOODRUFF       DRIZZLE   44  43  95 S9        30.02F
6HR MIN TEMP:  43; 6HR MAX TEMP:  45; 6HR PCP:  0.01;

RHINELANDER    LGT RAIN  43  41  93 SW6       30.04F FOG
6HR MIN TEMP:  42; 6HR MAX TEMP:  44; 6HR PCP:  0.10;

EAGLE RIVER    LGT RAIN  44  43  99 S3        30.03S
6HR MIN TEMP:  42; 6HR MAX TEMP:  45; 6HR PCP:  0.06;

LAND O LAKES   LGT RAIN  45  43  94 S3        30.03S
6HR MIN TEMP:  44; 6HR MAX TEMP:  46;

PHILLIPS       DRIZZLE   44  44  99 S7        30.01F
6HR MIN TEMP:  43; 6HR MAX TEMP:  44; 6HR PCP:  0.06;

TOMAHAWK       LGT RAIN  43  42  95 CALM      30.04F
6HR MIN TEMP:  40; 6HR MAX TEMP:  43; 6HR PCP:  0.11;

MEDFORD        RAIN      44  43  97 S6        30.03F
6HR MIN TEMP:  41; 6HR MAX TEMP:  44; 6HR PCP:  0.14;

MERRILL        LGT RAIN  44  43  99 S3        30.05F
6HR MIN TEMP:  41; 6HR MAX TEMP:  44; 6HR PCP:  0.19;

$$

WIZ029-030-035-036-043>047-231900-
CENTRAL WISCONSIN

CITY           SKY/WX    TMP DP  RH WIND       PRES   REMARKS
WAUSAU         LGT RAIN  44  43  96 S10       30.03F FOG
6HR MIN TEMP:  42; 6HR MAX TEMP:  44; 6HR PCP:  0.14;

MOSINEE        NOT AVBL
MARSHFIELD     LGT RAIN  46  44  93 S7        30.04F FOG
6HR MIN TEMP:  43; 6HR MAX TEMP:  46; 6HR PCP:  0.12;

STEVENS POINT  LGT RAIN  42  41  97 S5        30.06F
6HR MIN TEMP:  38; 6HR MAX TEMP:  42; 6HR PCP:  0.01;

WAUPACA        RAIN      47  46  94 SE3       30.09F
6HR MIN TEMP:  35; 6HR MAX TEMP:  47; 6HR PCP:  0.14;

WAUTOMA        LGT RAIN  46  45  93 S6        30.08F FOG
6HR MIN TEMP:  36; 6HR MAX TEMP:  46; 6HR PCP: TRACE;

WISC RAPIDS    LGT RAIN  46  44  93 S6        30.06F FOG
6HR MIN TEMP:  41; 6HR MAX TEMP:  46;

CAMP DOUGLAS   LGT RAIN  46  46 100 S7        30.06F
                                      6HR PCP:  0.21;

$$

WIZ011>013-019>022-031-037>040-048>050-231900-
NORTHEAST WISCONSIN

CITY           SKY/WX    TMP DP  RH WIND       PRES   REMARKS
ANTIGO         DRIZZLE   40  40  99 S8        30.06F
6HR MIN TEMP:  37; 6HR MAX TEMP:  40; 6HR PCP:  0.03;

SHAWANO        DRIZZLE   48  44  85 CALM      30.09F
6HR MIN TEMP:  32; 6HR MAX TEMP:  50; 6HR PCP:  0.02;

OCONTO         CLOUDY    54  40  59 S6        30.09F
6HR MIN TEMP:  29; 6HR MAX TEMP:  55;

STURGEON BAY   CLOUDY    55  43  62 S10       30.10F
6HR MIN TEMP:  39; 6HR MAX TEMP:  55;

GREEN BAY      CLOUDY    54  40  59 S12       30.10F
6HR MIN TEMP:  37; 6HR MAX TEMP:  55; 6HR PCP: TRACE;

MANITOWOC      PTSUNNY   53  45  74 S10       30.12F
6HR MIN TEMP:  40; 6HR MAX TEMP:  55;

APPLETON       PTSUNNY   52  41  66 SW9       30.10F
CLINTONVILLE   RAIN      45  43  93 S5        30.09F
OSHKOSH        CLOUDY    53  41  63 S8        30.09F
6HR MIN TEMP:  32; 6HR MAX TEMP:  53;

$$

WIZ032>034-041-042-053>061-231900-
SOUTHWEST WISCONSIN

CITY           SKY/WX    TMP DP  RH WIND       PRES   REMARKS
LA CROSSE      CLOUDY    50  46  86 S14G20    30.05F
6HR MIN TEMP:  49; 6HR MAX TEMP:  50; 6HR PCP:  0.12;

SPARTA         CLOUDY    47  45  94 SW5       30.06F
6HR MIN TEMP:  46; 6HR MAX TEMP:  47; 6HR PCP:  0.29;

VIROQUA        CLOUDY    45  45 100 S6        30.05F
6HR MIN TEMP:  44; 6HR MAX TEMP:  47; 6HR PCP:  0.19;

BOSCOBEL       LGT RAIN  48  45  89 S5        30.07F FOG
6HR MIN TEMP:  47; 6HR MAX TEMP:  50; 6HR PCP:  0.25;

PRAIRIE DU CHI CLOUDY    47  44  88 E5        30.06F
6HR MIN TEMP:  46; 6HR MAX TEMP:  51; 6HR PCP:  0.32;

PLATTEVILLE    CLOUDY    47  46  93 S8        30.08F
6HR MIN TEMP:  44; 6HR MAX TEMP:  47; 6HR PCP:  0.07;

$$

WIZ056-057-062-063-064-067-068-231900-
SOUTH CENTRAL WISCONSIN

CITY           SKY/WX    TMP DP  RH WIND       PRES   REMARKS
REEDSBURG      RAIN      45  44  97 SW6       30.06F
6HR MIN TEMP:  44; 6HR MAX TEMP:  46; 6HR PCP:  0.16;

BARABOO/DELLS  LGT RAIN  46  43  91 S7        30.06F
6HR MIN TEMP:  43; 6HR MAX TEMP:  47; 6HR PCP:  0.26;

LONE ROCK      RAIN      50  45  83 E5        30.07F
6HR MIN TEMP:  48; 6HR MAX TEMP:  50; 6HR PCP:  0.31;

MINERAL POINT  LGT RAIN  46  45  93 S8        30.07F
MADISON        LGT RAIN  51  44  77 S7        30.09F
6HR MIN TEMP:  40; 6HR MAX TEMP:  53; 6HR PCP:  0.01;

MIDDLETON      CLOUDY    51  44  78 S8        30.06F
6HR MIN TEMP:  41; 6HR MAX TEMP:  52; 6HR PCP:  0.01;

WATERTOWN      CLOUDY    55  41  59 S9        30.09F
6HR MIN TEMP:  34; 6HR MAX TEMP:  55;

MONROE         DRIZZLE   52  45  76 S9        30.07F
JANESVILLE     PTSUNNY   57  41  54 S12       30.08F
$$

WIZ051-052-058>065-066-070>072-231900-
SOUTHEAST WISCONSIN

CITY           SKY/WX    TMP DP  RH WIND       PRES   REMARKS
MILWAUKEE      CLOUDY    58  41  53 SW9       30.12F
6HR MIN TEMP:  37; 6HR MAX TEMP:  58;

WAUKESHA       SUNNY     54  39  58 SW9       30.13F
MILWAUKEE/TIMM SUNNY     55  39  54 S8        30.13F
RACINE         PTSUNNY   57  40  52 S10       30.15F
6HR MIN TEMP:  36; 6HR MAX TEMP:  59;

BURLINGTON     CLOUDY    56  40  54 S9G16     30.12F
6HR MIN TEMP:  24; 6HR MAX TEMP:  58;

KENOSHA        PTSUNNY   57  42  57 S9        30.13F
6HR MIN TEMP:  33; 6HR MAX TEMP:  58;

FOND DU LAC    CLOUDY    53  40  61 S12       30.09F
6HR MIN TEMP:  34; 6HR MAX TEMP:  53;

SHEBOYGAN      CLOUDY    55  40  56 S10       30.11F
6HR MIN TEMP:  30; 6HR MAX TEMP:  57;

WEST BEND      CLOUDY    54  37  54 S9        30.11F
JUNEAU         CLOUDY    53  41  64 SE10      30.09F
6HR MIN TEMP:  35; 6HR MAX TEMP:  53;

$$

LSZ147-162-231900-
LAKE SUPERIOR

STATION/POSITION TIME  TEMP    WIND        PRES    WAVE
                       AIR SEA DIR/SP/G            HT/PER
                 (UTC) (F)     (DEG/KT/KT) (MB)    (FT/S)
W MID LAKE BUOY  1750   47 46  190/  6/  8 1015.5F   1/ 3
DEVILS ISLAND    1800   49     180/  7/ 11 1015.2F
PORT WING        1700   52     210/  6/  9 1015.2F
SAXON HARBOR     1700   51     200/  9/ 13 1015.6F
$$

LMZ867-665-643>646-231900-
LAKE MICHIGAN




USA.gov is the U.S. government's official web portal to all federal, state and local government web resources and services.